CZ-2C R/B (40306 NORAD) Tracking and Keplerian Element Data

This shows tracking and keplerian element data for the satellite.

Feedback or suggestion? Click here.




ElementValue
Catalog40306
NameCZ-2C R/B
Epoch Orbit46011
Epoch Day14.22919938
Epoch Year2023
RAAN7.5929
Inclination97.4166
Eccentricity0.000356
Argument of Perigee134.3791
Mean Anonmoly225.8001
Mean Motion16.11161226
Decay Rate0.00843866
L11 40306U 14071B 23014.22919938 .00843866 41261-3 84809-3 0 9993
L22 40306 97.4166 7.5929 0003560 134.3791 225.8001 16.11161226460119



Live tracking and technical data element details for CZ-2C R/B (NORAD 40306). CZ-2C R/B can be tracked NOW for your location showing map with azimuth and elevation plus other details from your city location.







IsCatalogInMostPopularTable: catalog: 40306, numindb: 130
Update: records affected: 1



GetName: 40306 CZ-2C R/B

Hit Count: updated at: Fri, 19 Apr 2024 11:35:28 GMT